Wind_Speed
36 34 33 35 35 34 33 33 34 35 35 34 34 36 38 38 39 41 41 41 40 38 37 41 44 46 48 49 49 49 49 48 47 46 45 44 42 41 42 43 45 46
39 36 34 34 36 37 36 35 34 34 33 33 34 37 38 38 39 40 41 41 39 39 41 46 48 49 50 51 51 51 50 48 46 45 45 43 42 42 44 46 47 48
42 39 36 35 36 38 38 36 34 33 34 37 39 40 40 41 42 43 44 43 42 44 47 51 52 52 53 53 53 51 49 48 46 45 45 43 43 44 46 48 50 50
44 41 38 35 36 38 39 37 36 35 37 40 42 44 45 46 48 49 50 50 49 51 53 55 54 54 55 55 53 51 49 47 46 45 45 45 45 46 48 50 51 50
45 42 38 35 36 39 41 40 39 40 42 46 49 50 50 51 53 54 56 56 55 56 57 57 56 55 56 54 52 50 48 46 46 46 46 46 46 48 50 52 52 50
46 44 41 38 38 39 41 42 44 45 47 49 51 51 50 51 52 55 57 58 58 58 58 57 56 55 55 53 50 48 47 46 47 48 48 47 48 50 52 53 52 51
47 47 45 43 42 43 44 46 49 51 52 51 50 49 49 50 50 52 53 55 56 56 56 55 55 54 52 50 48 47 46 47 49 49 49 49 51 53 53 53 53 53
48 50 49 47 46 47 48 50 53 55 56 56 55 54 53 52 51 51 51 52 53 53 54 55 54 52 49 47 46 46 48 49 50 50 50 51 53 54 54 55 55 56
51 52 53 52 50 49 51 53 54 56 57 57 57 57 56 55 54 53 52 53 53 54 54 53 51 48 46 45 46 47 49 50 50 50 51 53 55 55 55 56 58 59
55 54 54 55 54 53 53 54 55 56 57 57 57 57 57 56 56 55 54 54 54 53 50 48 46 45 45 46 48 48 49 49 50 52 54 55 56 57 58 59 61 62
57 56 54 54 55 54 54 55 56 56 57 57 57 57 57 57 56 54 53 52 50 47 45 44 44 45 46 47 48 48 48 49 52 55 56 57 58 59 61 63 65 66
56 54 52 52 53 53 53 53 54 55 55 56 56 55 55 53 52 50 48 46 44 43 43 44 45 46 46 47 47 48 50 52 56 57 57 58 60 62 64 66 68 69
54 52 50 49 50 50 50 50 51 51 52 52 52 51 49 48 47 45 44 43 43 43 44 44 45 45 45 46 48 50 53 56 58 58 58 60 63 65 67 69 70 71
50 49 47 47 46 47 47 47 47 47 47 47 46 45 45 44 43 43 42 43 43 43 44 44 44 44 46 48 51 54 57 59 59 58 60 63 65 67 69 71 72 73
45 45 44 44 44 44 44 44 43 43 43 43 42 42 42 42 42 42 43 43 43 43 43 43 44 46 49 52 55 58 60 59 59 60 63 65 68 70 72 73 74 75
42 42 42 42 42 42 42 41 41 41 42 42 41 41 41 41 42 43 43 43 42 42 43 45 47 50 52 55 59 61 60 60 61 63 66 68 70 72 74 75 76 77
41 41 41 40 40 40 40 41 42 42 42 42 41 41 42 42 42 42 42 42 43 44 46 48 50 53 56 59 62 61 61 61 64 66 68 70 72 74 75 76 78 79
41 41 40 40 40 40 41 42 42 43 43 43 43 43 42 42 42 42 42 44 46 47 49 51 53 56 60 62 63 62 62 64 66 68 70 72 74 75 77 78 80 80
41 40 40 40 40 41 41 42 43 44 44 44 44 43 42 42 42 43 45 47 49 50 52 55 58 60 63 64 63 63 64 66 68 70 72 74 75 77 79 80 81 81
40 40 40 41 42 42 42 43 44 44 45 45 44 44 44 44 46 47 49 51 52 54 57 59 61 63 64 64 64 65 66 68 70 72 74 76 77 79 81 82 83 82
41 42 44 44 45 46 46 47 47 47 47 47 47 46 47 48 49 51 52 54 56 59 61 62 63 65 65 65 65 67 69 70 72 74 76 78 80 81 82 83 83 82
45 46 46 46 47 48 49 49 50 50 49 49 49 50 50 51 53 54 56 58 60 62 63 64 65 65 65 66 68 69 71 72 74 76 78 80 82 83 84 84 84 81
48 49 49 49 49 50 50 50 50 50 50 51 51 52 53 54 56 58 60 61 63 64 65 65 65 65 66 68 70 71 73 75 77 78 80 82 83 84 85 85 83 80
48 49 48 48 49 50 50 50 51 51 52 52 53 54 55 57 59 61 62 63 64 65 65 65 66 67 68 69 71 74 77 78 79 79 81 83 85 86 86 85 82 77
46 47 47 48 50 51 51 51 52 52 53 55 56 58 59 61 62 62 62 62 63 64 65 67 67 68 69 71 74 77 78 79 79 81 83 85 86 86 85 83 79 73
47 48 48 50 52 53 54 54 55 56 57 58 59 60 61 61 61 62 62 62 64 66 67 68 69 70 72 75 77 78 78 79 80 82 84 85 86 85 82 78 74 70
Wind_Direction
260 266 271 273 270 264 259 253 247 253 263 268 268 269 272 275 279 283 287 290 290 291 296 302 306 310 312 312 312 312 313 314 314 314 315 316 318 321 322 324 325 325
260 264 270 273 270 265 260 254 247 249 259 264 263 264 268 275 282 287 289 290 288 290 296 302 306 308 310 310 309 310 312 312 313 313 314 316 318 320 322 323 324 324
260 263 268 270 267 262 259 253 247 247 254 257 259 262 267 277 285 288 289 289 288 290 296 301 304 306 307 307 307 308 310 311 312 313 314 316 318 320 322 323 324 324
260 263 266 268 265 257 253 250 246 246 252 257 262 267 271 276 282 285 287 287 288 290 295 299 302 303 304 304 306 307 308 310 311 312 314 315 317 320 322 322 323 324
258 260 261 264 264 257 251 249 249 253 260 265 271 275 276 278 281 282 283 284 286 289 293 297 299 301 302 303 304 306 307 308 309 311 313 314 317 320 321 321 322 322
256 258 258 257 259 256 251 251 254 260 265 269 272 274 276 278 280 280 281 282 284 288 291 294 297 299 300 302 304 305 306 307 309 311 312 314 317 320 320 320 321 321
257 259 260 257 255 255 254 253 257 261 266 270 272 274 277 279 280 281 282 283 285 288 291 293 296 298 300 302 303 303 305 307 309 311 312 315 318 319 319 319 320 320
259 260 261 260 257 256 256 256 258 261 265 269 272 275 278 280 282 283 284 285 287 289 291 293 295 297 299 301 302 303 305 307 309 311 312 315 317 318 318 318 319 320
260 261 261 261 261 259 259 259 260 262 265 268 271 274 277 279 281 283 285 286 288 290 291 293 295 297 298 300 301 303 305 307 309 311 312 315 316 316 317 318 319 320
261 263 264 263 263 263 263 262 262 264 266 269 271 274 276 279 281 284 286 287 288 290 291 292 294 296 298 299 301 303 305 307 309 311 312 314 315 316 317 318 319 319
263 266 266 265 264 265 265 265 265 266 268 270 272 275 277 279 282 284 285 286 287 288 290 291 293 296 298 299 302 304 306 308 309 311 312 313 315 316 317 318 318 318
265 267 266 265 265 265 266 265 266 267 269 271 273 275 277 279 281 283 284 285 286 287 290 292 294 296 299 300 303 305 307 309 310 310 312 313 315 317 317 317 317 317
266 267 267 266 266 266 266 266 267 268 269 271 273 275 277 278 280 281 282 284 286 288 291 293 295 298 300 302 304 306 308 309 310 311 313 315 316 316 316 316 316 315
266 268 268 267 266 266 266 266 267 268 269 270 272 274 275 277 278 280 283 286 288 290 292 295 297 299 301 303 305 307 308 310 311 312 313 314 314 314 315 315 315 314
267 268 268 267 267 266 266 266 266 267 268 269 270 272 274 276 279 282 285 288 290 292 294 296 298 300 302 304 306 307 309 310 311 311 312 313 313 314 314 314 313 313
266 266 266 266 266 266 266 266 266 266 267 269 270 273 276 279 282 285 287 288 290 292 294 296 298 301 303 305 306 307 308 308 309 311 312 312 313 313 313 312 311 311
264 265 265 265 265 265 265 265 266 267 269 270 273 276 280 283 285 286 287 288 291 293 295 297 299 301 303 304 305 306 306 308 310 311 312 311 311 311 310 310 310 310
264 264 264 264 263 263 264 265 267 268 270 272 276 279 281 282 283 284 286 288 291 293 295 296 298 300 302 303 304 305 307 309 311 310 310 310 309 309 309 309 309 310
263 263 262 261 261 262 264 266 268 270 272 274 276 278 279 279 281 283 286 289 290 292 294 296 297 300 302 303 304 306 308 309 309 308 308 308 308 308 308 309 310 311
260 260 258 258 260 262 264 266 268 271 273 275 276 277 278 279 281 284 286 288 289 291 293 295 298 300 301 303 304 306 307 307 307 307 307 306 307 307 308 310 311 312
256 256 257 259 261 263 264 266 268 271 273 275 276 277 279 281 283 284 286 287 289 291 293 296 298 300 302 303 304 305 305 306 306 305 305 306 307 308 310 311 312 314
256 256 259 261 263 265 267 269 271 273 275 277 278 279 281 283 284 285 286 287 289 292 294 296 298 300 302 303 303 304 304 304 304 305 305 306 308 309 311 312 313 314
259 260 262 264 267 269 271 272 274 276 278 280 281 281 282 283 284 285 286 288 291 293 295 297 299 300 301 301 302 302 303 303 303 304 306 307 309 311 312 313 313 313
261 262 264 266 268 270 271 273 275 277 279 280 281 282 282 283 284 286 288 290 292 294 296 297 298 299 299 299 300 301 301 302 303 305 307 309 310 312 312 313 312 312
260 261 261 262 264 266 269 272 274 276 278 280 281 282 283 284 285 287 289 291 293 294 296 297 297 297 298 298 299 300 301 303 305 307 309 310 311 312 312 312 311 311
258 259 259 261 262 264 267 270 272 274 277 279 280 281 283 284 286 287 289 291 292 293 294 295 296 297 297 298 299 300 302 304 306 308 310 311 312 312 311 310 310 310
Height
10729 10729 10728 10727 10727 10727 10728 10727 10725 10725 10727 10728 10729 10729 10730 10730 10729 10728 10727 10726 10725 10724 10722 10720 10719 10717 10716 10714 10712 10710 10708 10706 10704 10702 10700 10698 10696 10694 10693 10691 10688 10686
10725 10725 10725 10724 10723 10722 10722 10723 10722 10723 10723 10724 10725 10726 10726 10726 10725 10724 10723 10722 10721 10720 10718 10716 10715 10713 10711 10710 10708 10706 10704 10702 10700 10699 10697 10694 10692 10690 10688 10686 10684 10682
10720 10721 10721 10721 10720 10719 10718 10719 10719 10720 10720 10721 10721 10722 10722 10722 10721 10720 10719 10718 10717 10716 10714 10712 10710 10709 10707 10706 10704 10701 10700 10698 10696 10694 10693 10690 10688 10686 10684 10682 10680 10678
10716 10717 10718 10717 10717 10716 10716 10716 10716 10717 10717 10717 10717 10718 10718 10718 10717 10716 10715 10714 10713 10711 10710 10708 10706 10704 10703 10701 10699 10697 10695 10693 10692 10690 10689 10686 10684 10682 10680 10678 10676 10673
10712 10714 10714 10714 10714 10714 10714 10714 10714 10714 10714 10714 10714 10714 10714 10714 10713 10712 10711 10710 10708 10707 10705 10703 10702 10700 10698 10696 10695 10693 10691 10689 10688 10686 10685 10682 10680 10678 10676 10674 10672 10669
10708 10710 10710 10710 10710 10711 10712 10712 10712 10711 10711 10710 10710 10709 10709 10709 10708 10707 10706 10705 10704 10702 10701 10699 10697 10695 10693 10692 10690 10689 10687 10685 10683 10682 10680 10678 10676 10674 10672 10670 10667 10665
10704 10705 10705 10706 10706 10707 10708 10708 10708 10707 10707 10706 10706 10705 10705 10704 10703 10702 10701 10701 10699 10698 10696 10694 10693 10691 10689 10688 10686 10684 10683 10681 10679 10677 10675 10673 10671 10669 10667 10665 10662 10660
10698 10699 10700 10700 10701 10702 10703 10703 10703 10702 10701 10701 10701 10700 10699 10699 10698 10697 10697 10696 10694 10693 10691 10689 10688 10686 10685 10683 10682 10681 10679 10677 10675 10672 10670 10668 10666 10665 10662 10659 10657 10654
10692 10693 10694 10695 10696 10697 10697 10697 10697 10696 10696 10696 10695 10694 10694 10693 10693 10692 10691 10691 10689 10688 10686 10685 10683 10682 10680 10679 10678 10676 10675 10673 10670 10668 10665 10663 10661 10660 10657 10654 10652 10649
10687 10688 10689 10690 10690 10691 10691 10691 10691 10690 10690 10690 10689 10689 10688 10688 10687 10687 10686 10685 10684 10683 10681 10680 10678 10677 10676 10675 10673 10672 10670 10668 10665 10663 10660 10658 10656 10654 10651 10648 10646 10643
10682 10683 10684 10684 10684 10685 10685 10685 10684 10684 10684 10684 10683 10683 10682 10682 10681 10681 10681 10680 10679 10678 10676 10675 10674 10672 10671 10670 10668 10667 10665 10663 10660 10658 10655 10652 10650 10648 10645 10642 10639 10637
10676 10677 10678 10678 10678 10678 10678 10678 10678 10678 10678 10678 10677 10677 10676 10676 10676 10676 10675 10674 10673 10672 10671 10670 10669 10668 10667 10665 10664 10662 10660 10658 10655 10652 10649 10647 10644 10642 10639 10637 10633 10630
10670 10672 10673 10673 10672 10672 10672 10673 10673 10672 10672 10672 10671 10671 10671 10671 10671 10670 10670 10669 10668 10668 10666 10665 10664 10663 10662 10660 10659 10657 10655 10653 10650 10647 10644 10641 10639 10636 10634 10631 10627 10624
10666 10667 10667 10667 10667 10667 10667 10667 10667 10666 10666 10666 10666 10666 10666 10666 10665 10665 10665 10664 10663 10663 10661 10660 10659 10658 10657 10655 10653 10651 10649 10647 10644 10641 10639 10636 10633 10630 10628 10624 10621 10617
10660 10661 10661 10661 10661 10661 10661 10661 10661 10660 10660 10660 10661 10661 10660 10660 10660 10660 10660 10659 10658 10657 10656 10655 10654 10653 10651 10649 10647 10645 10643 10641 10639 10636 10633 10630 10627 10624 10621 10617 10614 10611
10655 10656 10656 10656 10656 10656 10655 10655 10655 10655 10655 10655 10655 10655 10655 10655 10655 10655 10655 10654 10653 10652 10651 10650 10649 10647 10646 10644 10641 10639 10637 10635 10633 10631 10627 10624 10621 10617 10614 10610 10607 10603
10650 10650 10651 10651 10650 10650 10650 10650 10650 10650 10650 10650 10650 10650 10650 10650 10650 10650 10650 10649 10648 10647 10646 10645 10643 10642 10640 10638 10635 10633 10631 10629 10627 10624 10621 10618 10615 10611 10608 10604 10600 10596
10645 10645 10646 10645 10644 10644 10645 10645 10645 10645 10645 10645 10645 10646 10646 10646 10646 10645 10644 10644 10643 10641 10640 10639 10638 10636 10634 10632 10629 10627 10625 10623 10620 10618 10615 10611 10608 10605 10601 10597 10593 10589
10640 10640 10640 10639 10638 10639 10640 10640 10640 10640 10640 10640 10641 10641 10641 10641 10641 10640 10639 10638 10637 10636 10635 10633 10632 10630 10628 10626 10624 10621 10619 10617 10614 10611 10608 10605 10601 10598 10594 10590 10585 10581
10635 10634 10633 10633 10633 10635 10635 10635 10635 10635 10635 10636 10636 10636 10636 10636 10635 10634 10634 10633 10632 10631 10629 10628 10626 10625 10622 10620 10617 10615 10613 10611 10608 10605 10601 10598 10594 10590 10586 10581 10577 10572
10629 10628 10627 10628 10628 10629 10629 10630 10630 10630 10630 10631 10631 10631 10631 10630 10630 10629 10628 10627 10626 10625 10624 10622 10621 10619 10616 10613 10611 10609 10607 10604 10601 10598 10594 10590 10586 10582 10578 10573 10568 10563
10624 10623 10623 10623 10623 10623 10624 10624 10624 10624 10625 10625 10626 10626 10626 10625 10624 10624 10623 10622 10620 10619 10618 10616 10615 10613 10610 10607 10604 10602 10600 10598 10595 10591 10587 10583 10578 10574 10569 10564 10560 10555
10619 10619 10618 10618 10618 10618 10619 10619 10619 10620 10620 10621 10621 10621 10620 10620 10619 10618 10617 10616 10614 10613 10612 10610 10608 10606 10604 10601 10598 10595 10593 10591 10588 10584 10579 10575 10570 10566 10561 10556 10552 10548
10614 10614 10614 10614 10613 10614 10614 10615 10615 10616 10616 10616 10616 10616 10615 10614 10614 10612 10611 10610 10608 10607 10605 10604 10602 10600 10598 10595 10592 10589 10585 10582 10580 10576 10572 10567 10562 10558 10553 10548 10544 10540
10609 10609 10610 10609 10609 10609 10610 10611 10611 10611 10611 10611 10611 10610 10609 10609 10607 10607 10606 10604 10602 10601 10599 10597 10596 10594 10591 10588 10586 10583 10579 10575 10571 10568 10563 10559 10554 10549 10545 10540 10536 10532
10605 10605 10605 10605 10605 10606 10607 10607 10607 10607 10607 10607 10606 10605 10604 10603 10602 10601 10600 10599 10597 10595 10593 10591 10589 10587 10585 10581 10578 10575 10572 10568 10564 10560 10556 10551 10546 10542 10537 10532 10528 10524